TimeEST,TemperatureF,Dew PointF,Humidity,Sea Level PressureIn,VisibilityMPH,Wind Direction,Wind SpeedMPH,Gust SpeedMPH,PrecipitationIn,Events,Conditions,WindDirDegrees,DateUTC
12:53 AM,28.9,28.0,96,29.92,4.0,NNW,4.6,-,N/A,,Clear,340,2013-02-06 05:53:00
2:53 AM,30.9,30.9,100,29.96,3.0,NNW,4.6,-,N/A,,Partly Cloudy,330,2013-02-06 07:53:00
3:07 AM,30.2,30.2,100,29.96,2.5,Calm,Calm,-,N/A,,Clear,0,2013-02-06 08:07:00
3:34 AM,28.4,28.4,100,29.97,1.8,Calm,Calm,-,N/A,,Clear,0,2013-02-06 08:34:00
3:41 AM,26.6,26.6,100,29.97,2.5,Calm,Calm,-,N/A,,Clear,0,2013-02-06 08:41:00
3:53 AM,27.0,27.0,100,29.97,1.8,NW,3.5,-,N/A,,Clear,320,2013-02-06 08:53:00
4:31 AM,26.6,26.6,100,29.98,2.5,Calm,Calm,-,N/A,,Clear,0,2013-02-06 09:31:00
4:53 AM,26.1,24.1,92,29.99,2.0,Calm,Calm,-,N/A,,Clear,0,2013-02-06 09:53:00
5:02 AM,26.6,24.8,93,29.99,3.0,Calm,Calm,-,N/A,,Clear,0,2013-02-06 10:02:00
5:17 AM,24.8,24.8,100,30.00,2.5,Calm,Calm,-,N/A,,Clear,0,2013-02-06 10:17:00
5:51 AM,24.8,24.8,100,30.01,3.0,Calm,Calm,-,N/A,,Clear,0,2013-02-06 10:51:00
5:53 AM,25.0,24.1,96,30.01,3.0,Calm,Calm,-,N/A,,Clear,0,2013-02-06 10:53:00
6:35 AM,26.6,24.8,93,30.05,3.0,NNW,4.6,-,N/A,,Clear,330,2013-02-06 11:35:00
6:49 AM,28.4,26.6,93,30.06,2.5,NNW,3.5,-,N/A,,Clear,330,2013-02-06 11:49:00
6:53 AM,28.9,28.0,96,30.06,2.5,NNW,4.6,-,N/A,,Clear,330,2013-02-06 11:53:00
7:10 AM,28.4,26.6,93,30.07,1.5,NNW,4.6,-,N/A,,Clear,330,2013-02-06 12:10:00
7:53 AM,32.0,32.0,100,30.10,1.2,Calm,Calm,-,N/A,,Clear,0,2013-02-06 12:53:00
8:17 AM,33.8,33.8,100,30.11,2.0,NNW,4.6,-,N/A,,Clear,330,2013-02-06 13:17:00
8:46 AM,37.4,35.6,93,30.12,3.0,NNW,3.5,-,N/A,,Clear,340,2013-02-06 13:46:00
8:53 AM,37.0,35.1,93,30.13,4.0,NNW,3.5,-,N/A,,Clear,340,2013-02-06 13:53:00
9:53 AM,41.0,33.1,73,30.16,8.0,North,10.4,-,N/A,,Clear,360,2013-02-06 14:53:00
10:53 AM,43.0,30.0,60,30.17,10.0,North,10.4,19.6,N/A,,Clear,360,2013-02-06 15:53:00
11:53 AM,46.0,30.0,54,30.17,10.0,NNW,9.2,-,N/A,,Clear,340,2013-02-06 16:53:00
12:53 PM,48.0,28.9,48,30.16,10.0,NW,10.4,17.3,N/A,,Mostly Cloudy,310,2013-02-06 17:53:00
1:53 PM,46.9,28.9,50,30.16,10.0,NW,8.1,-,N/A,,Mostly Cloudy,320,2013-02-06 18:53:00
2:53 PM,46.0,28.0,50,30.18,10.0,NW,6.9,-,N/A,,Clear,310,2013-02-06 19:53:00
3:53 PM,46.0,27.0,47,30.19,10.0,WNW,8.1,-,N/A,,Clear,300,2013-02-06 20:53:00
4:53 PM,43.0,26.1,51,30.22,10.0,NW,6.9,-,N/A,,Clear,320,2013-02-06 21:53:00
5:53 PM,37.0,25.0,62,30.25,10.0,NNW,3.5,-,N/A,,Clear,330,2013-02-06 22:53:00
6:53 PM,33.1,25.0,72,30.29,10.0,North,3.5,-,N/A,,Clear,350,2013-02-06 23:53:00
7:53 PM,30.9,24.1,76,30.31,10.0,Calm,Calm,-,N/A,,Clear,0,2013-02-07 00:53:00
8:53 PM,26.1,23.0,88,30.33,10.0,North,3.5,-,N/A,,Clear,360,2013-02-07 01:53:00
9:53 PM,25.0,24.1,96,30.35,10.0,Calm,Calm,-,N/A,,Clear,0,2013-02-07 02:53:00
10:53 PM,27.0,25.0,92,30.36,10.0,Calm,Calm,-,N/A,,Clear,0,2013-02-07 03:53:00